QPF
0.00 0.00 0.00 0.14 0.25 0.24 0.15 0.12 0.12 0.10 0.10 0.03 0.00 0.01 0.00 0.00 0.00 0.00 0.00 0.00 0.00 0.00 0.00 0.01 0.01 0.07 0.06 0.05 0.09 0.08 0.05 0.06 0.02 0.00 0.01 0.03 0.05 0.04 0.01 0.00 0.00 0.00 0.00
0.02 0.09 0.14 0.27 0.21 0.15 0.08 0.07 0.08 0.06 0.06 0.02 0.00 0.00 0.00 0.00 0.00 0.00 0.00 0.00 0.00 0.00 0.00 0.02 0.01 0.05 0.03 0.04 0.07 0.08 0.08 0.07 0.09 0.01 0.02 0.02 0.02 0.03 0.02 0.00 0.00 0.00 0.00
0.02 0.07 0.18 0.14 0.09 0.04 0.01 0.02 0.10 0.13 0.08 0.07 0.09 0.07 0.02 0.01 0.00 0.00 0.00 0.00 0.00 0.00 0.00 0.00 0.00 0.02 0.01 0.06 0.07 0.02 0.01 0.04 0.08 0.04 0.01 0.04 0.03 0.02 0.00 0.00 0.00 0.00 0.01
0.00 0.05 0.03 0.04 0.02 0.00 0.04 0.06 0.17 0.19 0.19 0.17 0.15 0.10 0.05 0.03 0.00 0.00 0.00 0.00 0.00 0.00 0.00 0.01 0.02 0.02 0.04 0.05 0.03 0.00 0.02 0.01 0.02 0.03 0.02 0.01 0.01 0.01 0.02 0.02 0.01 0.01 0.01
0.01 0.00 0.00 0.00 0.00 0.03 0.07 0.16 0.28 0.25 0.15 0.10 0.11 0.04 0.01 0.00 0.00 0.00 0.00 0.00 0.00 0.00 0.00 0.01 0.03 0.04 0.02 0.02 0.01 0.01 0.01 0.01 0.02 0.03 0.02 0.00 0.01 0.01 0.02 0.01 0.01 0.01 0.01
0.00 0.00 0.00 0.00 0.00 0.00 0.00 0.01 0.04 0.05 0.04 0.05 0.04 0.03 0.01 0.00 0.00 0.01 0.01 0.00 0.00 0.00 0.00 0.00 0.01 0.00 0.00 0.00 0.00 0.00 0.00 0.01 0.01 0.01 0.01 0.01 0.01 0.00 0.01 0.00 0.00 0.01 0.00
0.00 0.00 0.00 0.00 0.00 0.00 0.01 0.00 0.02 0.04 0.07 0.06 0.04 0.04 0.03 0.01 0.00 0.00 0.01 0.01 0.00 0.00 0.00 0.00 0.00 0.00 0.00 0.00 0.00 0.00 0.00 0.00 0.00 0.00 0.00 0.00 0.00 0.00 0.00 0.01 0.00 0.01 0.00
0.00 0.00 0.00 0.00 0.00 0.00 0.00 0.01 0.01 0.00 0.00 0.00 0.00 0.00 0.00 0.00 0.00 0.00 0.01 0.01 0.02 0.02 0.03 0.03 0.00 0.00 0.00 0.00 0.00 0.00 0.00 0.00 0.00 0.00 0.00 0.00 0.00 0.00 0.00 0.02 0.01 0.01 0.00
0.00 0.00 0.00 0.00 0.00 0.00 0.00 0.00 0.00 0.00 0.00 0.00 0.00 0.00 0.00 0.00 0.00 0.00 0.02 0.08 0.07 0.07 0.12 0.10 0.05 0.01 0.01 0.00 0.00 0.01 0.00 0.00 0.00 0.00 0.00 0.00 0.00 0.00 0.00 0.01 0.01 0.00 0.00
0.00 0.00 0.01 0.01 0.02 0.00 0.00 0.00 0.00 0.00 0.00 0.00 0.00 0.00 0.00 0.00 0.00 0.00 0.00 0.02 0.05 0.07 0.06 0.07 0.07 0.03 0.12 0.05 0.00 0.01 0.00 0.00 0.00 0.00 0.00 0.00 0.00 0.00 0.00 0.00 0.01 0.00 0.00
0.00 0.00 0.01 0.01 0.01 0.00 0.00 0.00 0.00 0.00 0.00 0.00 0.00 0.00 0.00 0.00 0.00 0.00 0.01 0.02 0.03 0.01 0.01 0.00 0.00 0.01 0.07 0.17 0.06 0.05 0.02 0.01 0.04 0.04 0.01 0.00 0.02 0.01 0.00 0.00 0.00 0.00 0.00
0.00 0.00 0.00 0.00 0.00 0.00 0.00 0.00 0.00 0.00 0.00 0.00 0.00 0.00 0.02 0.03 0.02 0.03 0.01 0.01 0.00 0.00 0.01 0.05 0.02 0.03 0.07 0.08 0.07 0.04 0.04 0.01 0.00 0.03 0.06 0.01 0.01 0.02 0.00 0.00 0.00 0.00 0.00
0.00 0.04 0.03 0.01 0.00 0.00 0.00 0.00 0.00 0.00 0.00 0.00 0.00 0.00 0.00 0.01 0.01 0.09 0.05 0.02 0.01 0.01 0.01 0.02 0.05 0.10 0.07 0.01 0.01 0.01 0.02 0.01 0.00 0.01 0.00 0.01 0.04 0.05 0.01 0.00 0.00 0.00 0.00
0.00 0.03 0.01 0.00 0.00 0.00 0.00 0.00 0.00 0.00 0.00 0.00 0.00 0.00 0.00 0.01 0.03 0.05 0.01 0.00 0.00 0.01 0.03 0.02 0.05 0.10 0.05 0.01 0.01 0.01 0.00 0.02 0.02 0.01 0.00 0.02 0.03 0.01 0.00 0.00 0.01 0.01 0.00
0.00 0.00 0.00 0.00 0.00 0.00 0.00 0.00 0.01 0.02 0.05 0.01 0.01 0.01 0.02 0.06 0.06 0.09 0.02 0.00 0.01 0.04 0.01 0.03 0.04 0.03 0.02 0.00 0.00 0.02 0.01 0.01 0.02 0.01 0.00 0.00 0.01 0.00 0.00 0.00 0.02 0.03 0.01
0.00 0.00 0.00 0.00 0.00 0.00 0.00 0.00 0.05 0.07 0.12 0.09 0.02 0.00 0.01 0.00 0.00 0.04 0.02 0.03 0.04 0.04 0.00 0.01 0.04 0.05 0.01 0.01 0.01 0.02 0.03 0.02 0.03 0.04 0.01 0.00 0.00 0.00 0.00 0.00 0.00 0.01 0.03
0.00 0.00 0.00 0.01 0.03 0.02 0.01 0.00 0.00 0.02 0.11 0.11 0.01 0.01 0.00 0.00 0.01 0.01 0.02 0.03 0.01 0.00 0.00 0.00 0.01 0.03 0.03 0.02 0.04 0.01 0.01 0.04 0.03 0.04 0.03 0.00 0.00 0.00 0.00 0.00 0.00 0.00 0.01
0.00 0.00 0.00 0.02 0.01 0.01 0.00 0.00 0.00 0.04 0.06 0.12 0.09 0.03 0.00 0.00 0.00 0.01 0.07 0.05 0.00 0.00 0.00 0.00 0.01 0.03 0.06 0.05 0.04 0.03 0.01 0.02 0.03 0.01 0.01 0.00 0.00 0.00 0.00 0.00 0.00 0.00 0.00
0.00 0.00 0.00 0.00 0.00 0.00 0.00 0.00 0.01 0.03 0.05 0.05 0.07 0.06 0.05 0.03 0.00 0.06 0.12 0.12 0.03 0.00 0.00 0.00 0.01 0.01 0.01 0.03 0.03 0.01 0.00 0.00 0.00 0.00 0.00 0.00 0.00 0.00 0.00 0.00 0.00 0.00 0.00
0.00 0.00 0.00 0.00 0.00 0.00 0.00 0.00 0.00 0.01 0.01 0.01 0.01 0.00 0.00 0.00 0.00 0.02 0.05 0.08 0.04 0.00 0.00 0.00 0.01 0.01 0.02 0.01 0.01 0.00 0.00 0.00 0.00 0.00 0.00 0.00 0.00 0.01 0.02 0.01 0.00 0.00 0.00
0.00 0.00 0.00 0.00 0.00 0.00 0.00 0.00 0.00 0.00 0.00 0.00 0.00 0.00 0.00 0.00 0.00 0.01 0.01 0.03 0.04 0.02 0.01 0.00 0.00 0.00 0.01 0.01 0.01 0.01 0.06 0.04 0.00 0.00 0.00 0.00 0.00 0.00 0.00 0.01 0.02 0.00 0.00
0.00 0.00 0.00 0.00 0.00 0.00 0.00 0.00 0.00 0.00 0.00 0.00 0.00 0.00 0.01 0.01 0.01 0.00 0.01 0.00 0.01 0.02 0.01 0.00 0.00 0.00 0.01 0.01 0.02 0.02 0.03 0.06 0.04 0.01 0.01 0.02 0.03 0.01 0.00 0.00 0.00 0.00 0.00
0.00 0.00 0.00 0.00 0.00 0.00 0.00 0.00 0.00 0.00 0.00 0.00 0.00 0.00 0.00 0.00 0.00 0.00 0.00 0.00 0.00 0.01 0.01 0.00 0.00 0.00 0.00 0.00 0.01 0.02 0.02 0.03 0.03 0.04 0.03 0.04 0.03 0.01 0.00 0.00 0.00 0.00 0.00
0.00 0.00 0.00 0.00 0.00 0.00 0.00 0.00 0.00 0.00 0.00 0.00 0.00 0.00 0.00 0.00 0.00 0.00 0.00 0.00 0.00 0.00 0.00 0.00 0.00 0.00 0.00 0.00 0.00 0.00 0.00 0.00 0.00 0.01 0.01 0.01 0.01 0.01 0.00 0.00 0.00 0.00 0.00
0.00 0.00 0.00 0.00 0.00 0.00 0.00 0.00 0.00 0.00 0.00 0.00 0.00 0.00 0.00 0.00 0.00 0.00 0.00 0.00 0.00 0.00 0.00 0.00 0.00 0.00 0.00 0.00 0.00 0.00 0.00 0.00 0.00 0.00 0.00 0.00 0.00 0.00 0.00 0.00 0.00 0.00 0.00
0.00 0.00 0.00 0.00 0.00 0.00 0.00 0.00 0.00 0.00 0.00 0.00 0.00 0.00 0.00 0.00 0.00 0.00 0.00 0.00 0.00 0.00 0.00 0.00 0.00 0.00 0.00 0.00 0.00 0.00 0.00 0.00 0.00 0.00 0.00 0.00 0.00 0.01 0.02 0.03 0.03 0.02 0.02
MSLP
1005.25 1005.33 1005.95 1006.91 1007.29 1007.47 1006.95 1007.87 1007.19 1009.25 1009.38 1007.69 1008.18 1008.38 1007.78 1007.65 1007.99 1007.56 1007.04 1006.56 1007.00 1007.12 1007.27 1007.44 1007.39 1007.44 1007.59 1007.61 1007.48 1007.42 1007.52 1007.76 1007.80 1007.57 1007.78 1007.80 1008.07 1008.09 1008.44 1008.81 1009.19 1009.42 1009.74
1005.63 1005.94 1006.46 1006.52 1006.48 1006.50 1006.20 1005.86 1006.17 1006.92 1007.58 1006.61 1006.41 1007.63 1007.09 1006.96 1007.00 1006.57 1006.34 1006.16 1006.24 1006.40 1006.29 1006.55 1006.46 1006.41 1006.52 1006.59 1006.77 1006.52 1006.48 1006.63 1006.98 1006.82 1007.21 1007.44 1007.36 1007.40 1007.73 1008.22 1008.54 1008.88 1009.18
1006.48 1006.58 1006.76 1007.04 1006.72 1006.17 1005.80 1006.05 1006.47 1006.26 1006.66 1006.78 1006.56 1006.99 1006.55 1006.24 1006.22 1005.39 1005.48 1005.71 1005.72 1005.73 1005.64 1005.62 1005.54 1005.49 1005.48 1005.70 1005.93 1006.01 1005.73 1005.82 1006.02 1006.12 1006.34 1006.70 1006.94 1007.10 1007.51 1007.89 1008.17 1008.48 1008.64
1007.22 1007.04 1007.00 1006.70 1006.28 1006.09 1006.14 1006.14 1006.28 1005.99 1005.98 1004.89 1006.50 1006.92 1005.62 1005.45 1004.97 1004.38 1004.74 1005.02 1005.24 1005.17 1005.16 1004.98 1004.82 1004.61 1004.49 1004.80 1005.16 1005.24 1005.20 1005.18 1005.36 1005.52 1005.83 1006.11 1006.27 1006.60 1006.84 1007.27 1007.83 1008.08 1008.35
1006.66 1006.58 1006.49 1006.65 1006.81 1006.66 1006.14 1005.72 1005.39 1005.30 1004.92 1005.26 1004.63 1005.03 1004.89 1004.37 1003.94 1003.50 1003.77 1004.28 1004.68 1004.50 1004.27 1004.13 1003.93 1004.01 1003.63 1004.02 1004.47 1004.53 1004.70 1004.69 1004.80 1004.96 1005.24 1005.55 1005.75 1006.09 1006.31 1006.78 1007.38 1007.98 1008.44
1006.96 1006.63 1006.59 1006.52 1006.27 1005.83 1005.52 1005.19 1004.76 1004.38 1004.34 1004.09 1004.29 1004.37 1004.00 1003.57 1002.84 1002.34 1002.78 1003.48 1003.74 1003.67 1003.33 1003.18 1003.12 1003.47 1002.74 1003.36 1003.78 1003.93 1003.93 1004.03 1004.19 1004.42 1004.68 1004.89 1005.05 1005.29 1005.75 1006.32 1007.13 1008.04 1008.68
1007.18 1006.61 1006.07 1005.67 1005.44 1005.08 1004.71 1004.47 1004.22 1003.87 1003.62 1003.60 1003.40 1003.22 1002.68 1002.21 1001.50 1001.55 1001.69 1002.58 1002.67 1002.53 1002.50 1002.56 1002.14 1002.42 1002.49 1003.02 1003.29 1003.48 1003.48 1003.52 1003.56 1004.09 1004.41 1004.48 1004.62 1004.65 1005.14 1005.70 1006.30 1006.77 1007.53
1006.86 1006.32 1005.68 1005.25 1004.85 1004.48 1004.42 1004.20 1003.84 1003.66 1003.40 1003.11 1002.72 1002.13 1001.76 1001.36 1000.83 1000.66 1000.90 1001.58 1001.73 1001.60 1001.40 1001.59 1001.65 1001.84 1002.11 1002.63 1003.25 1003.35 1003.30 1003.34 1003.46 1003.87 1004.06 1003.98 1004.15 1004.06 1004.54 1004.92 1005.75 1006.41 1007.11
1006.93 1006.30 1005.68 1005.17 1004.65 1004.13 1003.71 1003.33 1003.11 1002.82 1002.33 1001.98 1001.53 1001.20 1000.82 1000.38 1000.18 1000.27 1000.71 1001.04 1000.94 1000.68 1000.68 1000.85 1000.95 1001.27 1001.65 1002.08 1002.96 1003.12 1003.18 1003.08 1003.30 1003.64 1003.73 1003.92 1004.12 1004.32 1004.64 1005.01 1005.53 1006.26 1007.07
1006.58 1005.90 1005.34 1004.95 1004.55 1003.95 1003.31 1002.85 1002.34 1001.92 1001.70 1001.37 1000.94 1000.41 999.89 999.59 999.23 999.39 999.87 1000.12 1000.19 1000.01 1000.00 1000.17 1000.40 1000.54 1001.19 1001.63 1002.32 1002.92 1002.64 1002.96 1003.27 1003.78 1003.95 1004.08 1004.41 1004.58 1004.90 1005.07 1005.61 1006.02 1006.59
1005.96 1005.46 1004.92 1004.63 1004.17 1003.62 1003.03 1002.39 1001.80 1001.27 1000.89 1000.43 1000.02 999.48 999.09 998.81 998.42 998.64 999.04 999.13 999.11 999.34 999.48 999.66 999.81 1000.05 1000.70 1001.25 1001.73 1002.39 1002.46 1002.81 1003.40 1003.70 1003.94 1004.35 1004.69 1004.87 1005.23 1005.53 1005.82 1005.76 1006.59
1006.08 1005.44 1004.81 1004.11 1003.43 1002.99 1002.60 1002.02 1001.39 1000.64 1000.03 999.38 998.98 998.38 997.95 997.57 997.47 997.57 997.94 998.11 998.02 998.67 998.72 998.84 999.02 999.53 1000.08 1000.81 1001.64 1001.91 1002.27 1002.87 1003.26 1003.64 1003.98 1004.25 1004.61 1004.96 1005.24 1005.57 1006.00 1006.32 1006.34
1006.06 1005.35 1004.60 1003.78 1003.06 1002.49 1002.16 1001.66 1001.05 1000.42 999.93 999.25 998.82 998.28 997.66 997.16 996.88 996.97 997.22 997.34 997.82 998.17 998.14 998.27 998.56 999.44 1000.06 1000.77 1001.32 1001.64 1002.12 1002.49 1002.90 1003.64 1003.91 1004.04 1004.35 1004.59 1005.28 1005.78 1006.16 1006.48 1006.64
1005.89 1005.12 1004.34 1003.76 1002.95 1002.30 1001.81 1001.24 1000.76 1000.08 999.54 999.01 998.51 998.02 997.58 997.23 996.82 996.79 996.92 997.31 997.60 997.94 997.86 998.28 998.81 999.50 1000.13 1000.66 1001.52 1001.73 1001.97 1002.15 1002.76 1003.29 1003.69 1004.06 1004.15 1004.56 1005.07 1005.54 1006.17 1006.66 1007.11
1005.81 1005.09 1004.45 1003.78 1002.97 1002.21 1001.58 1000.95 1000.40 999.50 999.15 998.67 998.18 997.86 997.59 997.01 996.60 996.42 996.66 996.98 997.12 997.24 997.72 998.24 998.80 999.42 1000.14 1000.68 1001.18 1001.51 1001.76 1002.13 1002.50 1002.92 1003.32 1003.79 1004.20 1004.48 1005.04 1005.48 1006.03 1006.63 1007.04
1005.89 1005.16 1004.56 1003.81 1003.04 1002.31 1001.50 1000.10 999.25 998.86 998.21 998.06 997.82 998.04 997.32 996.86 996.60 996.68 996.57 996.67 996.86 997.22 997.71 998.05 998.44 998.95 999.07 1000.12 1000.67 1001.06 1001.41 1001.76 1002.11 1002.56 1003.07 1003.43 1003.85 1004.36 1004.98 1005.56 1005.96 1006.40 1006.87
1006.20 1005.53 1004.71 1003.84 1002.96 1002.12 1001.34 1000.58 999.65 998.25 997.97 997.56 997.76 997.69 997.88 997.52 997.02 996.71 996.67 996.66 997.10 997.56 997.48 997.76 998.14 998.62 998.98 999.63 1000.20 1000.49 1000.98 1001.23 1001.06 1002.02 1002.83 1003.07 1003.48 1004.08 1004.71 1005.35 1005.68 1006.09 1006.66
1006.20 1005.59 1004.96 1004.10 1003.23 1002.52 1001.69 1001.03 1000.30 999.28 998.16 997.29 997.43 997.86 997.96 997.57 996.95 996.80 996.70 996.86 997.68 997.63 997.32 997.36 997.71 998.17 998.61 999.05 999.67 1000.10 1000.50 1001.12 1001.34 1001.98 1002.35 1002.66 1003.17 1003.80 1004.53 1004.98 1005.36 1005.73 1006.08
1006.34 1005.81 1005.26 1004.54 1003.87 1003.21 1002.30 1001.40 1000.75 999.94 998.81 998.20 997.78 997.38 997.66 997.71 997.56 997.10 996.97 996.83 996.99 997.32 997.43 997.48 997.55 997.80 998.27 998.79 999.22 999.69 1000.10 1000.46 1000.82 1001.27 1001.68 1002.18 1002.76 1003.33 1003.96 1004.32 1004.76 1005.04 1005.38
1006.85 1006.36 1005.86 1005.22 1004.58 1003.87 1003.17 1002.55 1001.94 1001.18 1000.50 999.81 999.38 999.21 998.40 997.76 997.63 997.62 997.57 997.29 997.23 997.32 997.37 997.48 997.60 997.70 997.93 998.34 998.76 999.18 999.72 1000.04 1000.34 1000.75 1001.25 1001.76 1002.32 1002.78 1003.25 1003.70 1004.12 1004.54 1005.07
1007.51 1006.94 1006.50 1005.98 1005.45 1004.94 1004.33 1003.78 1003.17 1002.46 1001.88 1001.36 1000.75 1000.36 999.49 998.58 998.06 997.74 997.73 997.63 997.37 997.29 997.35 997.43 997.47 997.57 997.76 998.04 998.24 998.74 999.17 999.54 999.89 1000.25 1000.74 1001.25 1001.77 1002.37 1002.64 1003.08 1003.45 1003.73 1004.12
1008.16 1007.67 1007.21 1006.86 1006.43 1005.87 1005.34 1004.78 1004.17 1003.60 1003.07 1002.55 1001.98 1001.32 1000.64 999.98 999.65 999.20 998.63 997.84 997.40 997.04 997.06 997.18 997.39 997.40 997.50 997.59 997.81 998.10 998.45 998.89 999.27 999.56 999.97 1000.47 1000.98 1001.38 1001.79 1002.34 1002.84 1003.28 1003.67
1008.67 1008.37 1008.01 1007.64 1007.22 1006.74 1006.13 1005.54 1005.04 1004.52 1003.98 1003.57 1003.12 1002.55 1001.98 1001.54 1000.85 1000.38 999.99 999.60 999.33 998.96 998.42 997.02 996.99 997.18 997.29 997.48 997.61 997.62 997.79 998.06 998.35 998.70 999.08 999.64 1000.16 1000.48 1000.91 1001.34 1001.84 1002.42 1002.95
1009.19 1008.92 1008.73 1008.44 1008.01 1007.51 1007.04 1006.56 1006.03 1005.53 1005.02 1004.54 1004.09 1003.63 1003.26 1002.87 1002.32 1001.86 1001.39 1000.93 1000.64 1000.17 999.82 999.22 998.85 998.47 998.06 998.24 998.31 998.24 998.14 998.18 998.00 997.98 998.33 998.68 999.14 999.66 1000.13 1000.61 1001.08 1001.47 1001.88
1009.75 1009.52 1009.33 1009.14 1008.79 1008.39 1007.89 1007.42 1006.99 1006.53 1006.07 1005.64 1005.22 1004.82 1004.40 1004.02 1003.50 1003.11 1002.74 1002.19 1001.86 1001.52 1001.24 1000.81 1000.48 1000.26 1000.13 999.45 999.49 999.35 998.86 998.69 998.40 998.17 997.78 998.17 998.48 998.85 999.36 999.78 1000.12 1000.50 1000.94
1009.91 1009.81 1009.62 1009.41 1009.18 1008.86 1008.52 1008.17 1007.82 1007.46 1007.05 1006.70 1006.34 1005.97 1005.56 1005.09 1004.78 1004.38 1004.05 1003.66 1003.22 1002.87 1002.44 1002.12 1001.97 1001.37 1000.88 999.75 1000.01 1000.03 999.06 998.46 998.43 998.36 998.16 998.02 998.14 998.53 998.92 999.21 999.41 999.86 1000.22
Thickness
5836 5830 5817 5805 5795 5783 5775 5766 5775 5752 5741 5752 5751 5749 5754 5758 5751 5750 5751 5754 5747 5744 5739 5733 5731 5727 5725 5726 5728 5729 5729 5728 5725 5738 5735 5736 5734 5738 5738 5734 5732 5733 5730
5823 5811 5800 5797 5789 5784 5781 5781 5773 5761 5749 5750 5756 5740 5748 5749 5746 5745 5744 5744 5739 5734 5731 5724 5723 5723 5719 5720 5719 5722 5724 5726 5722 5728 5726 5726 5729 5731 5731 5727 5728 5725 5725
5804 5799 5790 5779 5778 5777 5777 5768 5760 5755 5744 5742 5732 5731 5741 5742 5740 5744 5740 5731 5727 5723 5721 5718 5715 5711 5714 5713 5711 5711 5717 5719 5718 5720 5723 5719 5720 5722 5720 5719 5718 5718 5720
5787 5783 5774 5772 5770 5765 5757 5752 5744 5743 5741 5741 5723 5723 5737 5739 5740 5742 5731 5723 5717 5715 5710 5706 5702 5700 5705 5706 5705 5706 5708 5708 5710 5710 5712 5711 5713 5715 5713 5710 5707 5711 5709
5783 5777 5771 5763 5753 5748 5745 5744 5744 5741 5736 5724 5734 5726 5733 5733 5736 5735 5725 5715 5709 5707 5706 5702 5700 5697 5703 5701 5698 5700 5699 5700 5701 5701 5701 5702 5703 5704 5704 5701 5698 5696 5694
5767 5765 5759 5752 5747 5743 5739 5736 5733 5733 5730 5730 5727 5726 5724 5725 5730 5729 5718 5707 5703 5701 5702 5698 5697 5693 5701 5696 5694 5695 5696 5694 5693 5693 5694 5695 5697 5698 5695 5692 5688 5681 5677
5748 5748 5747 5746 5742 5737 5733 5728 5725 5723 5724 5721 5720 5719 5720 5723 5725 5717 5712 5700 5698 5700 5696 5690 5693 5693 5693 5689 5689 5689 5689 5689 5690 5686 5686 5688 5690 5691 5686 5682 5682 5680 5676
5735 5733 5732 5729 5727 5724 5717 5713 5713 5710 5709 5710 5711 5714 5714 5713 5712 5710 5704 5697 5694 5691 5689 5682 5683 5687 5686 5684 5679 5679 5680 5681 5682 5680 5681 5684 5685 5686 5680 5679 5677 5675 5674
5711 5711 5711 5709 5708 5707 5706 5704 5701 5700 5701 5700 5701 5702 5703 5705 5703 5699 5692 5689 5688 5686 5682 5677 5679 5680 5680 5679 5674 5673 5673 5677 5678 5676 5676 5675 5675 5675 5673 5671 5668 5669 5666
5698 5697 5694 5689 5687 5689 5692 5692 5693 5692 5690 5690 5691 5694 5696 5696 5698 5694 5686 5684 5681 5680 5679 5676 5676 5678 5675 5675 5671 5667 5671 5671 5671 5666 5667 5666 5665 5664 5664 5664 5662 5663 5661
5691 5684 5679 5673 5673 5675 5678 5682 5685 5686 5686 5686 5686 5689 5688 5689 5690 5685 5679 5680 5679 5676 5674 5672 5673 5675 5672 5671 5668 5665 5667 5666 5663 5662 5662 5659 5657 5657 5655 5655 5656 5656 5655
5674 5669 5664 5664 5667 5670 5670 5674 5676 5679 5682 5685 5685 5687 5688 5688 5687 5683 5677 5676 5677 5673 5671 5671 5671 5671 5668 5667 5662 5663 5663 5660 5660 5659 5658 5655 5654 5652 5653 5651 5652 5653 5656
5661 5657 5655 5655 5658 5661 5663 5665 5667 5669 5671 5674 5673 5675 5678 5679 5681 5677 5673 5673 5671 5669 5670 5670 5668 5664 5661 5660 5659 5660 5659 5658 5657 5652 5654 5655 5654 5656 5653 5651 5650 5652 5655
5656 5656 5655 5652 5654 5657 5658 5659 5660 5662 5664 5664 5665 5666 5667 5667 5669 5670 5668 5667 5665 5664 5667 5665 5661 5657 5654 5654 5652 5655 5655 5657 5654 5652 5652 5652 5654 5653 5652 5652 5650 5649 5648
5652 5652 5650 5648 5650 5654 5656 5654 5655 5659 5658 5660 5660 5660 5660 5663 5667 5669 5667 5665 5664 5665 5663 5660 5655 5651 5649 5650 5650 5652 5653 5652 5652 5653 5652 5650 5650 5651 5649 5649 5648 5646 5647
5648 5648 5645 5646 5648 5649 5652 5658 5657 5657 5658 5654 5653 5651 5659 5659 5660 5660 5662 5662 5662 5661 5661 5657 5654 5652 5652 5650 5650 5651 5652 5651 5651 5651 5650 5650 5650 5649 5647 5645 5646 5646 5646
5641 5641 5641 5643 5645 5647 5649 5649 5651 5658 5653 5652 5648 5645 5643 5648 5653 5656 5658 5659 5657 5656 5659 5657 5655 5653 5653 5651 5650 5651 5650 5650 5649 5651 5647 5648 5648 5647 5646 5645 5645 5645 5644
5637 5635 5635 5637 5640 5640 5642 5641 5642 5644 5649 5654 5650 5641 5640 5645 5651 5652 5653 5655 5652 5653 5658 5658 5657 5655 5654 5653 5651 5650 5649 5647 5649 5647 5647 5649 5648 5646 5644 5644 5645 5645 5647
5633 5632 5630 5631 5631 5631 5634 5637 5637 5640 5642 5643 5647 5645 5643 5642 5644 5648 5649 5655 5655 5652 5652 5654 5656 5656 5654 5652 5651 5650 5649 5649 5650 5650 5650 5649 5647 5645 5643 5644 5645 5645 5646
5624 5623 5622 5623 5623 5624 5625 5626 5626 5628 5628 5630 5632 5631 5639 5646 5648 5646 5645 5648 5648 5648 5649 5650 5652 5653 5653 5652 5651 5650 5648 5648 5649 5650 5649 5648 5646 5645 5644 5645 5646 5646 5643
5614 5615 5615 5614 5613 5612 5613 5612 5614 5616 5617 5617 5619 5619 5620 5635 5641 5642 5641 5640 5642 5644 5644 5646 5648 5651 5651 5650 5650 5649 5648 5647 5647 5647 5647 5646 5645 5643 5643 5642 5643 5645 5645
5606 5605 5606 5603 5602 5602 5602 5602 5603 5604 5605 5605 5607 5609 5610 5618 5620 5623 5628 5635 5637 5640 5642 5642 5642 5644 5646 5648 5648 5648 5647 5646 5645 5645 5645 5645 5645 5645 5645 5642 5640 5639 5640
5597 5595 5593 5592 5591 5591 5592 5593 5594 5594 5595 5595 5596 5599 5601 5603 5605 5608 5611 5614 5616 5619 5624 5637 5639 5640 5641 5642 5643 5645 5646 5647 5646 5645 5644 5642 5641 5643 5643 5643 5641 5639 5638
5585 5583 5581 5579 5578 5578 5579 5579 5581 5581 5583 5584 5586 5587 5587 5588 5591 5592 5594 5597 5599 5602 5606 5612 5616 5621 5627 5627 5628 5631 5633 5634 5640 5644 5643 5642 5642 5639 5639 5639 5638 5639 5638
5572 5570 5568 5565 5565 5564 5565 5565 5565 5567 5569 5570 5570 5572 5573 5574 5575 5576 5577 5580 5583 5585 5588 5591 5593 5596 5599 5607 5609 5611 5615 5620 5625 5628 5636 5636 5636 5636 5635 5636 5635 5634 5634
5563 5558 5555 5553 5551 5550 5550 5551 5551 5550 5551 5552 5553 5554 5556 5558 5557 5559 5560 5562 5564 5567 5571 5573 5574 5579 5582 5591 5592 5592 5603 5609 5611 5614 5620 5625 5627 5626 5626 5628 5629 5628 5628